[[{"header":{"parameterUnit":"m.s-1","parameterCategory":1,"la1":30.2991,"la2":30.254,"lo1":-89.0895,"lo2":-89.0444,"dy":0.0017,"dx":0.0017,"nx":28,"ny":28,"refTime":"2024-05-02T21:00:00:Z","depth":0,"parameterNumber":2,"parameterNumberName":"U-component_of_WINDS"},"data":[0,0,0,0,0,0,0,0,0,0,0,0,0,0,0,0,0,0,0,0,0,0,0,0,0,0,0,0,0,0,0,0,0,0,0,0,0,0,0,0,0,0,0,0,0,0,0,0,0,0,0,0,0,0,0,0,0,0,-0.6697,-0.6698,0,-0.6747,-0.6748,-0.6748,-0.6778,-0.6778,-0.6778,-0.6778,-0.683,-0.6832,-0.6833,0,0,0,0,0,0,0,0,0,0,0,0,0,-0.6629,-0.663,-0.6697,-0.6698,-0.6698,-0.6747,-0.6748,-0.6749,-0.6778,-0.6778,-0.6778,-0.6778,-0.683,-0.6831,-0.6833,0,0,0,0,0,0,0,0,0,0,0,0,0,-0.6667,-0.663,-0.6697,-0.6719,-0.6721,-0.6747,-0.6748,-0.6749,-0.6778,-0.6778,-0.6778,-0.6778,-0.6829,-0.6831,-0.6833,-0.6841,0,0,-0.6839,-0.684,0,0,0,0,0,0,0,0,-0.6664,-0.6669,-0.6715,-0.6717,-0.672,-0.6756,-0.6743,-0.678,-0.6778,-0.6756,-0.6778,-0.6778,-0.6806,-0.681,-0.6819,-0.6844,-0.6846,-0.6839,-0.684,-0.6841,-0.6842,0,0,0,0,0,0,0,-0.6662,-0.6667,-0.6717,-0.6716,-0.6719,-0.6727,-0.6732,-0.675,-0.6779,-0.6758,-0.6761,-0.6766,-0.6807,-0.6817,-0.682,-0.6847,-0.6839,-0.6841,-0.6842,-0.6843,-0.6883,-0.6882,0,0,0,0,0,0,-0.6655,-0.6665,-0.6715,-0.6719,-0.6692,-0.6728,-0.6734,-0.6745,-0.6779,-0.6785,-0.6766,-0.6767,-0.6813,-0.6818,-0.6822,-0.6835,-0.6841,-0.6843,-0.6844,-0.6883,-0.6883,-0.6882,0,0,0,0,0,0,-0.6654,-0.666,-0.6713,-0.6692,-0.67,-0.6729,-0.674,-0.6746,-0.6755,-0.6785,-0.679,-0.677,-0.6814,-0.6819,-0.6837,-0.6837,-0.6844,-0.6845,-0.6883,-0.6883,-0.6883,-0.6859,0,0,0,0,0,0,-0.6652,-0.6659,-0.6662,-0.6692,-0.6701,-0.6726,-0.674,-0.6746,-0.6758,-0.6761,-0.679,-0.6796,-0.6814,-0.6833,-0.6838,-0.6839,-0.6847,-0.6883,-0.6883,-0.6883,-0.686,-0.6858,-0.6857,0,0,0,0,0,-0.6649,-0.6653,-0.6662,-0.6668,-0.6705,-0.6726,-0.6731,-0.6753,-0.6758,-0.6762,-0.6781,-0.6795,-0.6836,-0.6835,-0.6841,-0.6842,-0.6883,-0.6883,-0.6883,-0.6861,-0.6859,-0.6857,0,0,0,0,0,0,-0.6622,-0.6657,-0.6667,-0.6681,-0.6701,-0.6731,-0.6736,-0.6749,-0.6768,-0.6769,-0.6795,-0.6802,-0.6817,-0.6831,-0.683,-0.6853,-0.6861,-0.6862,-0.6842,-0.6841,-0.6839,-0.6835,-0.6849,0,0,0,0,0,-0.6618,-0.6632,-0.6662,-0.6671,-0.6681,-0.6707,-0.6717,-0.6732,-0.6753,-0.6761,-0.6782,-0.6802,-0.682,-0.6831,-0.6849,-0.6863,-0.687,-0.6867,-0.6865,-0.6863,-0.6864,-0.6873,-0.6872,-0.6882,-0.6882,-0.6882,0,0,-0.6609,-0.663,-0.6637,-0.6667,-0.6683,-0.6698,-0.6713,-0.6728,-0.6739,-0.6764,-0.6781,-0.6797,-0.6822,-0.6837,-0.6845,-0.685,-0.6863,-0.6863,-0.6862,-0.6863,-0.6873,-0.6872,-0.6871,-0.6882,-0.6882,-0.6882,0,0,-0.66,-0.6617,-0.6627,-0.6644,-0.6669,-0.6687,-0.6689,-0.6718,-0.673,-0.6748,-0.6767,-0.6781,-0.6811,-0.6828,-0.684,-0.6839,-0.6853,-0.6845,-0.6836,-0.6844,-0.6844,-0.6843,-0.6843,-0.6843,-0.6845,-0.6845,-0.6845,0,-0.6586,-0.6608,-0.6631,-0.6644,-0.6657,-0.668,-0.6691,-0.6706,-0.6736,-0.6745,-0.675,-0.6788,-0.6806,-0.6827,-0.6827,-0.6836,-0.684,-0.6841,-0.6842,-0.6842,-0.6841,-0.6842,-0.6842,-0.6844,-0.6844,-0.6844,-0.6844,0,-0.659,-0.6605,-0.661,-0.6639,-0.6652,-0.6664,-0.6689,-0.67,-0.6714,-0.6732,-0.675,-0.6773,-0.6796,-0.6803,-0.6816,-0.6825,-0.6827,-0.6837,-0.6846,-0.6839,-0.684,-0.684,-0.6842,-0.6843,-0.6843,-0.6843,0,0,-0.6565,-0.6606,-0.6607,-0.6621,-0.6651,-0.6664,-0.6678,-0.67,-0.671,-0.673,-0.6743,-0.6768,-0.6777,-0.6791,-0.6807,-0.6815,-0.6814,-0.6824,-0.6825,-0.6821,-0.6826,-0.6819,-0.6819,-0.6823,-0.6823,-0.6823,-0.6824,0,-0.656,-0.6586,-0.6607,-0.6625,-0.664,-0.6662,-0.6675,-0.6695,-0.6711,-0.6727,-0.6746,-0.6764,-0.6774,-0.6783,-0.6792,-0.6812,-0.6815,-0.6812,-0.6836,-0.6836,-0.6829,-0.6819,-0.6811,-0.6811,-0.6825,-0.6825,-0.6825,0,-0.6559,-0.6578,-0.6597,-0.6627,-0.6634,-0.6644,-0.6668,-0.6682,-0.6706,-0.6718,-0.6734,-0.6751,-0.6768,-0.6775,-0.6799,-0.6796,-0.6807,-0.6819,-0.6819,-0.6822,-0.683,-0.6822,-0.6811,-0.6811,-0.6825,-0.6825,-0.6825,0,-0.6539,-0.657,-0.6586,-0.6597,-0.6631,-0.6638,-0.6653,-0.6677,-0.669,-0.6711,-0.6719,-0.6741,-0.6754,-0.6771,-0.6794,-0.6797,-0.6815,-0.6824,-0.6826,-0.6825,-0.6829,-0.6828,-0.682,-0.6835,-0.6835,-0.6835,-0.6835,0,-0.6532,-0.6543,-0.6577,-0.6587,-0.66,-0.6625,-0.6638,-0.6655,-0.6676,-0.669,-0.6711,-0.6724,-0.6753,-0.677,-0.6788,-0.6805,-0.681,-0.6821,-0.6826,-0.6819,-0.6818,-0.6827,-0.6827,-0.6835,-0.6835,-0.6835,-0.6835,0,-0.6512,-0.6535,-0.6554,-0.6586,-0.6594,-0.6603,-0.663,-0.6641,-0.6659,-0.6677,-0.6682,-0.6711,-0.6732,-0.6756,-0.6785,-0.6797,-0.6813,-0.682,-0.6805,-0.6808,-0.6808,-0.6808,-0.6805,-0.6806,-0.6821,-0.6821,-0.682,0,-0.6506,-0.6515,-0.6548,-0.6559,-0.6573,-0.659,-0.6603,-0.6629,-0.6642,-0.667,-0.6678,-0.67,-0.6719,-0.6751,-0.6775,-0.6798,-0.6805,-0.6803,-0.6809,-0.6802,-0.6806,-0.6805,-0.6807,-0.6801,-0.6801,-0.6801,-0.6801,0,-0.6493,-0.6505,-0.6523,-0.6545,-0.656,-0.6579,-0.6599,-0.6607,-0.6636,-0.665,-0.6672,-0.6686,-0.6716,-0.6738,-0.6764,-0.678,-0.6796,-0.6799,-0.68,-0.6794,-0.6785,-0.679,-0.6801,-0.6798,-0.6799,-0.6799,-0.6799,-0.6799,-0.6481,-0.649,-0.6515,-0.6535,-0.6552,-0.657,-0.6582,-0.6602,-0.6621,-0.6646,-0.6661,-0.6682,-0.6707,-0.6743,-0.6759,-0.6776,-0.6781,-0.6784,-0.6784,-0.6785,-0.6783,-0.6782,-0.6781,-0.6781,-0.6781,-0.6781,-0.6781,0,-0.6469,-0.6487,-0.6504,-0.6532,-0.6547,-0.6561,-0.6584,-0.6596,-0.6614,-0.6636,-0.6655,-0.668,-0.6702,-0.6728,-0.6752,-0.6761,-0.6769,-0.6767,-0.6766,-0.677,-0.6777,-0.6773,-0.676,-0.676,-0.676,-0.676,-0.676,-0.676,-0.6465,-0.6482,-0.6497,-0.6523,-0.654,-0.6561,-0.6573,-0.6591,-0.6608,-0.6635,-0.6654,-0.6671,-0.6694,-0.672,-0.6742,-0.6749,-0.6757,-0.6752,-0.6762,-0.6767,-0.6769,-0.6771,-0.6768,-0.6754,-0.6754,-0.6754,-0.6754,-0.6754]},{"header":{"parameterUnit":"m.s-1","parameterCategory":1,"la1":30.2991,"la2":30.254,"lo1":-89.0895,"lo2":-89.0444,"dy":0.0017,"dx":0.0017,"nx":28,"ny":28,"refTime":"2024-05-02T21:00:00:Z","depth":0,"parameterNumber":3,"parameterNumberName":"V-component_of_WINDS"},"data":[0,0,0,0,0,0,0,0,0,0,0,0,0,0,0,0,0,0,0,0,0,0,0,0,0,0,0,0,0,0,0,0,0,0,0,0,0,0,0,0,0,0,0,0,0,0,0,0,0,0,0,0,0,0,0,0,0,0,1.9142,1.9142,0,1.9104,1.9104,1.9103,1.9058,1.9057,1.9057,1.9056,1.9015,1.9015,1.9014,0,0,0,0,0,0,0,0,0,0,0,0,0,1.9174,1.9174,1.9142,1.9142,1.9141,1.9104,1.9104,1.9103,1.9058,1.9057,1.9057,1.9056,1.9015,1.9015,1.9014,0,0,0,0,0,0,0,0,0,0,0,0,0,1.9151,1.9174,1.9142,1.9114,1.9112,1.9104,1.9104,1.9103,1.9058,1.9057,1.9056,1.9055,1.9016,1.9015,1.9014,1.9031,0,0,1.9012,1.9012,0,0,0,0,0,0,0,0,1.9152,1.915,1.9119,1.9116,1.9113,1.9085,1.91,1.9079,1.9059,1.9079,1.9056,1.9055,1.9039,1.9036,1.9032,1.9029,1.9027,1.9012,1.9012,1.9011,1.9011,0,0,0,0,0,0,0,1.9154,1.9151,1.9127,1.9119,1.9115,1.9103,1.9099,1.9096,1.9065,1.9077,1.9073,1.907,1.9037,1.9032,1.903,1.9027,1.9012,1.9012,1.9011,1.9011,1.9035,1.9036,0,0,0,0,0,0,1.916,1.9153,1.9128,1.9126,1.9131,1.9104,1.9099,1.9095,1.9065,1.9059,1.9071,1.9068,1.9034,1.9031,1.9029,1.9046,1.9011,1.9011,1.901,1.9034,1.9035,1.9036,0,0,0,0,0,0,1.9161,1.9158,1.913,1.9138,1.9134,1.9104,1.9101,1.9095,1.909,1.906,1.9054,1.9071,1.9033,1.903,1.9031,1.9044,1.9011,1.901,1.9033,1.9034,1.9036,1.908,0,0,0,0,0,0,1.9162,1.9159,1.9165,1.9139,1.9134,1.9133,1.9101,1.9095,1.9089,1.9085,1.9059,1.9054,1.9032,1.9032,1.903,1.9042,1.9009,1.9031,1.9033,1.9035,1.9077,1.9083,1.9088,0,0,0,0,0,1.9163,1.9179,1.9166,1.9163,1.9141,1.9134,1.9131,1.9106,1.909,1.9096,1.9077,1.9055,1.9043,1.9032,1.903,1.9042,1.903,1.9033,1.9035,1.9075,1.9082,1.9088,0,0,0,0,0,0,1.9207,1.9175,1.916,1.9168,1.9154,1.9127,1.9133,1.9114,1.9104,1.91,1.9069,1.9063,1.9068,1.9055,1.9044,1.9056,1.9033,1.9035,1.9064,1.9071,1.9076,1.9079,1.9009,0,0,0,0,0,1.9218,1.9215,1.9187,1.9197,1.9191,1.9163,1.9159,1.9141,1.9125,1.9119,1.91,1.9085,1.9078,1.9074,1.9065,1.9075,1.9069,1.9082,1.9088,1.9092,1.9094,1.9098,1.9103,1.9044,1.9044,1.9044,0,0,1.9239,1.9222,1.9222,1.9205,1.9192,1.919,1.9159,1.9157,1.9155,1.9119,1.9119,1.9104,1.9085,1.9091,1.9092,1.908,1.9109,1.9095,1.9099,1.9098,1.9101,1.9106,1.9111,1.9046,1.9045,1.9045,0,0,1.9278,1.9264,1.9271,1.9259,1.924,1.9222,1.9223,1.9199,1.9188,1.9187,1.916,1.9156,1.9145,1.9132,1.9124,1.9158,1.9137,1.9156,1.9183,1.9187,1.9192,1.9196,1.9207,1.9212,1.9158,1.9158,1.9158,0,1.9307,1.9303,1.9276,1.9277,1.927,1.9237,1.9243,1.9233,1.9212,1.9208,1.9194,1.9179,1.9164,1.9166,1.9174,1.9169,1.9169,1.9159,1.9194,1.9197,1.9201,1.9211,1.9215,1.9161,1.916,1.916,1.916,0,1.9339,1.9337,1.9344,1.9325,1.9319,1.9323,1.9296,1.9293,1.9275,1.9258,1.9258,1.9239,1.9226,1.9225,1.9208,1.9225,1.9218,1.92,1.9176,1.9209,1.9218,1.9222,1.9164,1.9163,1.9163,1.9162,0,0,1.9403,1.937,1.9374,1.9365,1.9342,1.9339,1.934,1.9328,1.9326,1.9313,1.9313,1.9304,1.9287,1.9278,1.9259,1.9262,1.929,1.9244,1.9243,1.9252,1.9306,1.932,1.9325,1.9276,1.9276,1.9277,1.9307,0,1.9437,1.9438,1.9415,1.9422,1.9419,1.9388,1.9389,1.9375,1.9359,1.9354,1.9336,1.933,1.9308,1.9303,1.9305,1.9286,1.93,1.9283,1.9274,1.9274,1.928,1.933,1.9344,1.9373,1.9311,1.9312,1.9312,0,1.9476,1.9466,1.9473,1.945,1.9448,1.9449,1.9436,1.9432,1.9415,1.9403,1.9393,1.9372,1.937,1.9349,1.9346,1.9336,1.9331,1.9321,1.9321,1.9319,1.9295,1.9328,1.9382,1.9387,1.9318,1.9317,1.9317,0,1.9522,1.951,1.9512,1.9506,1.9479,1.9481,1.9469,1.9451,1.9445,1.9434,1.9429,1.9418,1.9411,1.9402,1.9378,1.9364,1.9378,1.9354,1.9367,1.9368,1.9371,1.9371,1.9425,1.9369,1.9369,1.9369,1.9369,0,1.9561,1.9567,1.9533,1.9534,1.9539,1.9512,1.9518,1.9503,1.9487,1.9485,1.9458,1.9456,1.9424,1.9418,1.9399,1.94,1.9397,1.9387,1.9381,1.9389,1.939,1.9385,1.9382,1.937,1.937,1.9369,1.9369,0,1.9613,1.959,1.9591,1.9566,1.9559,1.9564,1.9542,1.9542,1.9524,1.9522,1.952,1.9492,1.9484,1.9459,1.9444,1.9431,1.9438,1.9428,1.9444,1.944,1.9454,1.9453,1.9506,1.9511,1.9453,1.9454,1.9454,0,1.964,1.9643,1.9618,1.9615,1.9605,1.96,1.9594,1.9567,1.9562,1.9543,1.9545,1.9535,1.9526,1.9514,1.9493,1.9481,1.9471,1.949,1.9469,1.9476,1.947,1.947,1.947,1.9494,1.9495,1.9496,1.9496,0,1.9689,1.9678,1.967,1.966,1.9653,1.9643,1.9631,1.963,1.96,1.9595,1.9587,1.958,1.9566,1.9556,1.9541,1.9528,1.9507,1.9503,1.9506,1.9513,1.9522,1.9517,1.9456,1.9502,1.9501,1.9501,1.9501,1.95,1.9728,1.973,1.9713,1.9706,1.9694,1.9684,1.9682,1.9665,1.9658,1.9645,1.9629,1.9623,1.9605,1.9583,1.9572,1.9566,1.9554,1.9558,1.9559,1.956,1.9563,1.9523,1.9563,1.9563,1.9563,1.9562,1.9562,0,1.9776,1.9763,1.9757,1.9742,1.9736,1.9718,1.9704,1.97,1.9695,1.968,1.9672,1.9662,1.9652,1.963,1.9618,1.9617,1.9607,1.9615,1.9615,1.9612,1.9574,1.9573,1.9623,1.9623,1.9623,1.9623,1.9623,1.9623,1.98,1.9802,1.9788,1.9784,1.9771,1.9765,1.9759,1.9749,1.9737,1.9728,1.972,1.9706,1.9688,1.9674,1.9664,1.9657,1.9654,1.9665,1.9655,1.962,1.9615,1.9609,1.9608,1.9664,1.9664,1.9693,1.9693,1.9693]}]]